Location: West Chester
(39.9610°N, 75.6060°W)
Time: 20:22:11
(UTC-04:00)

ARIANE 6 FM1 Upper Stage - Pass Details

Date: 19 September 2024
Orbit: 563 x 594 km, 62.0° (Epoch: 11 October)

Event Time Altitude Azimuth Distance (km) Brightness Sun altitude
Rises 22:10:56 0° 253° (WSW) 2,778 6.6 -34.5°
Reaches altitude 10° 22:13:38 10° 271° (W) 1,891 5.9 -34.9°
Enters shadow 22:14:58 16° 286° (WNW) 1,559 5.5 -35.1°
